sat.trackr.live / text

‹ back to catalog

YUNYAO-1 18

NORAD 58758 · 2024-009A

PAYLOAD ACTIVE UNKNOWN

§ Identity

Operator
Country
PRC
Launch date
2024-01-11
Launch site
YSLA
Launch vehicle
Mass (kg)
RCS (m²)

External: N2YO · Heavens-Above · Gunter

§ Orbital elements

Epoch: 2026-09-21T22:05:54.852864Z

Period
94.40 min
Inclination
50.0140°
Eccentricity
0.0005849
Mean motion
15.25387980 rev/d
Perigee alt
485.6 km
Apogee alt
493.6 km
Semi-major
6,867.8 km
B*
4.0572e-4
RAAN
36.8710°
Arg perigee
288.7638°
Mean anomaly
71.2683°
Rev number
14,960

§ Raw data

YUNYAO-1 181 58758U 24009A   26264.92077376  .00010077  00000+0  40572-3 0  99942 58758  50.0140  36.8710 0005849 288.7638  71.2683 15.25387980149603

JSON: /api/v1/satellites/58758 · /tle

For live sub-satellite position, see the globe view (requires WebGL).

§ Visibility from observer

Set your observer location to see the next 7 days of passes ≥ 10°. The values pass through the URL so the page stays shareable.

No JS? Fill the form by hand. The geolocation button needs JavaScript.